Simultaneous Nadir Overpasses (SNOs) Predictions

Prediction of SNOs near US between NOAA-19 and NPP Satellite Orbit:

Table of predicted SNOs near US for the next 10.0 days since TLE Epoch: 12/31/2011
Index Date (NOAA-19) Time (NOAA-19) NOAA-19 Lat,Lon Date (NPP) Time (NPP) NPP Lat,Lon Distance(km) Time Diff (sec)
1 01/02/2012 19:56:20 36.18,-102.63 01/02/2012 20:00:20 35.66,-105.16 235.40 240
2 01/03/2012 06:35:09 49.90, -65.23 01/03/2012 06:35:31 50.25, -67.14 141.66 22
3 01/03/2012 08:17:26 49.25, -91.05 01/03/2012 08:17:13 49.54, -92.83 133.13 13
4 01/03/2012 10:00:08 47.16,-117.46 01/03/2012 09:59:19 47.46,-119.09 127.13 49
5 01/03/2012 18:07:32 49.96, -79.54 01/03/2012 18:03:52 49.86, -80.18 46.62 220
6 01/03/2012 19:49:38 49.98,-105.08 01/03/2012 19:45:22 49.88,-105.56 36.34 256
7 01/04/2012 08:15:01
